Location: Caltech
(34.1382°N, 118.1253°W)
Time: 00:46:49
(UTC-07:00)

HO-68 - Visible Passes

Search period start: 05 July 2015 00:00
Search period end: 15 July 2015 00:00
Orbit: 1192 x 1205 km, 100.2° (Epoch: 04 July)

Date Brightness Start Highest point End Pass type
(mag) Time Alt. Az. Time Alt. Az. Time Alt. Az.
05 Jul ? 21:06:13 10° S 21:13:20 67° WSW 21:20:27 10° NNW visible
06 Jul ? 20:49:14 10° SSE 20:56:24 87° WSW 21:03:36 10° NNW visible
06 Jul ? 22:42:31 10° WSW 22:45:11 12° W 22:47:14 10° WNW visible
07 Jul ? 20:32:26 10° SSE 20:39:32 72° ENE 20:46:39 10° N visible
07 Jul ? 22:23:19 10° SW 22:27:58 17° W 22:32:11 10° NW visible
08 Jul ? 22:05:07 10° SSW 22:10:47 24° W 22:16:13 10° NW visible
09 Jul ? 21:47:21 10° SSW 21:53:41 33° W 21:59:54 10° NW visible
10 Jul ? 21:29:52 10° S 21:36:38 44° W 21:43:22 10° NNW visible
11 Jul ? 21:12:37 10° S 21:19:39 59° WSW 21:26:41 10° NNW visible
12 Jul ? 20:55:34 10° SSE 21:02:43 79° WSW 21:09:54 10° NNW visible
13 Jul ? 20:38:41 10° SSE 20:45:49 80° ENE 20:52:59 10° NNW visible
13 Jul ? 22:30:22 10° SW 22:34:24 15° W 22:37:55 10° WNW visible
14 Jul ? 20:21:59 10° SSE 20:28:58 61° ENE 20:35:59 10° N visible
14 Jul ? 22:11:53 10° SW 22:17:12 21° W 22:22:12 10° NW visible
